[[{"header":{"parameterUnit":"m.s-1","parameterCategory":1,"la1":30.2991,"la2":30.254,"lo1":-89.0895,"lo2":-89.0444,"dy":0.0017,"dx":0.0017,"nx":28,"ny":28,"refTime":"2025-04-30T03:00:00:Z","depth":0,"parameterNumber":2,"parameterNumberName":"U-component_of_WINDS"},"data":[0,0,0,0,0,0,0,0,0,0,0,0,0,0,0,0,0,0,0,0,0,0,0,0,0,0,0,0,0,0,0,0,0,0,0,0,0,0,0,0,0,0,0,0,0,0,0,0,0,0,0,0,0,0,0,0,0,0,-2.7292,-2.7292,0,-2.7327,-2.7328,-2.7328,-2.7306,-2.7305,-2.7304,-2.7303,-2.734,-2.7342,-2.7344,0,0,0,0,0,0,0,0,0,0,0,0,0,-2.7208,-2.7209,-2.7292,-2.7292,-2.7293,-2.7327,-2.7328,-2.7328,-2.7307,-2.7305,-2.7304,-2.7303,-2.7339,-2.7341,-2.7344,0,0,0,0,0,0,0,0,0,0,0,0,0,-2.7244,-2.721,-2.7292,-2.7286,-2.7286,-2.7327,-2.7328,-2.7328,-2.7307,-2.7305,-2.7304,-2.7302,-2.7338,-2.7341,-2.7344,-2.7393,0,0,-2.7353,-2.7354,0,0,0,0,0,0,0,0,-2.7242,-2.7247,-2.7287,-2.7287,-2.7287,-2.7311,-2.7311,-2.735,-2.7307,-2.7299,-2.7303,-2.7302,-2.7331,-2.7335,-2.7345,-2.7394,-2.7396,-2.7353,-2.7355,-2.7356,-2.7357,0,0,0,0,0,0,0,-2.7239,-2.7245,-2.7306,-2.7287,-2.7287,-2.7283,-2.7286,-2.7319,-2.7323,-2.73,-2.7298,-2.7303,-2.7331,-2.7342,-2.7345,-2.7397,-2.7353,-2.7356,-2.7357,-2.7359,-2.7489,-2.7491,0,0,0,0,0,0,-2.7237,-2.7243,-2.7305,-2.7307,-2.726,-2.7285,-2.7289,-2.7305,-2.7323,-2.7324,-2.7304,-2.7301,-2.7338,-2.7342,-2.7347,-2.7405,-2.7356,-2.7359,-2.7361,-2.7488,-2.749,-2.7492,0,0,0,0,0,0,-2.7235,-2.7243,-2.7303,-2.7275,-2.7282,-2.7288,-2.7306,-2.7306,-2.7317,-2.7326,-2.7327,-2.7314,-2.7337,-2.7343,-2.7382,-2.7406,-2.736,-2.7363,-2.7486,-2.7488,-2.7491,-2.7522,0,0,0,0,0,0,-2.7233,-2.7242,-2.726,-2.7275,-2.7284,-2.7337,-2.7307,-2.7308,-2.7322,-2.7319,-2.7336,-2.7337,-2.7336,-2.7378,-2.7385,-2.7409,-2.7365,-2.7483,-2.7487,-2.749,-2.7519,-2.7526,-2.7531,0,0,0,0,0,-2.723,-2.7268,-2.7261,-2.7269,-2.7306,-2.7339,-2.7344,-2.7341,-2.7324,-2.7342,-2.7349,-2.7337,-2.7403,-2.7382,-2.739,-2.7415,-2.7482,-2.7486,-2.749,-2.7516,-2.7524,-2.7531,0,0,0,0,0,0,-2.7255,-2.7269,-2.7262,-2.7306,-2.7321,-2.7335,-2.7358,-2.735,-2.737,-2.7367,-2.7364,-2.7368,-2.7408,-2.7416,-2.7392,-2.7464,-2.744,-2.7445,-2.7457,-2.7465,-2.7471,-2.7468,-2.7367,0,0,0,0,0,-2.7265,-2.729,-2.7302,-2.7339,-2.7347,-2.7352,-2.7365,-2.7363,-2.7378,-2.7385,-2.7394,-2.741,-2.7434,-2.745,-2.7473,-2.7521,-2.7524,-2.7543,-2.7549,-2.7554,-2.7558,-2.7585,-2.7593,-2.7505,-2.7505,-2.7504,0,0,-2.7287,-2.7298,-2.7314,-2.7344,-2.7356,-2.7382,-2.7357,-2.7385,-2.7405,-2.7389,-2.7426,-2.7434,-2.7452,-2.7496,-2.7515,-2.7503,-2.7584,-2.7559,-2.7563,-2.7565,-2.759,-2.7598,-2.7605,-2.7507,-2.7507,-2.7506,0,0,-2.734,-2.7351,-2.7383,-2.7396,-2.7414,-2.7417,-2.7425,-2.7441,-2.7445,-2.7483,-2.7472,-2.7496,-2.7537,-2.7551,-2.7563,-2.7624,-2.7614,-2.7632,-2.7663,-2.7689,-2.7696,-2.7702,-2.7723,-2.7731,-2.7637,-2.7637,-2.7637,0,-2.7365,-2.7403,-2.7401,-2.7431,-2.7445,-2.7433,-2.7466,-2.7478,-2.7503,-2.7513,-2.75,-2.7553,-2.7564,-2.7611,-2.7626,-2.7637,-2.7646,-2.7629,-2.7695,-2.7701,-2.7707,-2.7727,-2.7735,-2.7639,-2.7638,-2.7638,-2.7638,0,-2.7433,-2.746,-2.7484,-2.7508,-2.7525,-2.7557,-2.756,-2.7578,-2.7575,-2.7579,-2.7619,-2.7632,-2.7658,-2.7669,-2.7666,-2.7716,-2.7708,-2.7695,-2.767,-2.7717,-2.7736,-2.7744,-2.7641,-2.7641,-2.764,-2.764,0,0,-2.75,-2.7524,-2.7533,-2.7544,-2.7564,-2.7586,-2.7617,-2.7643,-2.7658,-2.7677,-2.7703,-2.774,-2.7728,-2.7743,-2.7741,-2.7764,-2.7811,-2.7748,-2.7748,-2.7759,-2.7868,-2.7877,-2.7886,-2.7806,-2.7807,-2.7808,-2.7866,0,-2.7553,-2.7608,-2.7608,-2.7658,-2.7684,-2.7674,-2.7701,-2.7717,-2.7723,-2.7746,-2.7753,-2.7779,-2.7762,-2.7771,-2.7793,-2.7801,-2.7833,-2.7797,-2.783,-2.7831,-2.7824,-2.7896,-2.7905,-2.7959,-2.7874,-2.7875,-2.7876,0,-2.7623,-2.7643,-2.7696,-2.7714,-2.7724,-2.7749,-2.7773,-2.7795,-2.7814,-2.7817,-2.7834,-2.7829,-2.7862,-2.7838,-2.7884,-2.7859,-2.7873,-2.788,-2.7882,-2.7883,-2.7855,-2.7899,-2.7976,-2.7984,-2.7888,-2.7887,-2.7886,0,-2.7666,-2.7707,-2.7744,-2.7754,-2.7776,-2.7794,-2.7804,-2.782,-2.7836,-2.7858,-2.7868,-2.7894,-2.7907,-2.7927,-2.793,-2.7912,-2.7976,-2.7952,-2.798,-2.798,-2.7992,-2.7991,-2.8072,-2.8003,-2.8003,-2.8003,-2.8003,0,-2.7725,-2.7757,-2.7764,-2.7787,-2.7823,-2.7824,-2.7861,-2.7869,-2.7885,-2.791,-2.7903,-2.7927,-2.793,-2.7955,-2.7958,-2.7995,-2.8002,-2.8005,-2.8005,-2.8005,-2.8004,-2.8013,-2.8009,-2.8005,-2.8005,-2.8004,-2.8004,0,-2.7778,-2.7784,-2.7824,-2.7841,-2.7847,-2.7873,-2.7888,-2.7911,-2.7917,-2.7948,-2.7956,-2.7966,-2.7995,-2.8,-2.8034,-2.8036,-2.8081,-2.8078,-2.8075,-2.8074,-2.8101,-2.8098,-2.8189,-2.8201,-2.8126,-2.8126,-2.8127,0,-2.7815,-2.784,-2.7861,-2.7877,-2.7887,-2.7913,-2.793,-2.7932,-2.795,-2.7974,-2.7993,-2.8021,-2.8044,-2.8091,-2.8101,-2.8128,-2.8125,-2.8155,-2.8128,-2.8128,-2.8124,-2.8122,-2.8125,-2.8159,-2.816,-2.8161,-2.8161,0,-2.788,-2.7881,-2.7905,-2.793,-2.7949,-2.7969,-2.7988,-2.8002,-2.8007,-2.8027,-2.8057,-2.8074,-2.811,-2.8138,-2.8165,-2.8176,-2.817,-2.817,-2.8178,-2.8177,-2.8173,-2.8175,-2.8087,-2.8167,-2.8167,-2.8166,-2.8166,-2.8166,-2.7925,-2.7947,-2.7965,-2.7992,-2.8007,-2.8025,-2.8047,-2.8056,-2.8081,-2.8109,-2.811,-2.8142,-2.8162,-2.8197,-2.821,-2.8236,-2.8226,-2.8237,-2.824,-2.8242,-2.8245,-2.8171,-2.8241,-2.8241,-2.824,-2.824,-2.824,0,-2.7989,-2.8001,-2.8025,-2.8052,-2.8073,-2.8066,-2.8087,-2.8106,-2.8134,-2.8153,-2.8175,-2.821,-2.8238,-2.8251,-2.8279,-2.8297,-2.8295,-2.8304,-2.8302,-2.8305,-2.8252,-2.8242,-2.8306,-2.8306,-2.8306,-2.8306,-2.8306,-2.8306,-2.8025,-2.8061,-2.8066,-2.811,-2.8122,-2.8153,-2.8166,-2.8183,-2.8198,-2.8236,-2.8259,-2.8268,-2.8285,-2.8314,-2.834,-2.8343,-2.8354,-2.8364,-2.8366,-2.8316,-2.8309,-2.8302,-2.8293,-2.8367,-2.8367,-2.8417,-2.8418,-2.8418]},{"header":{"parameterUnit":"m.s-1","parameterCategory":1,"la1":30.2991,"la2":30.254,"lo1":-89.0895,"lo2":-89.0444,"dy":0.0017,"dx":0.0017,"nx":28,"ny":28,"refTime":"2025-04-30T03:00:00:Z","depth":0,"parameterNumber":3,"parameterNumberName":"V-component_of_WINDS"},"data":[0,0,0,0,0,0,0,0,0,0,0,0,0,0,0,0,0,0,0,0,0,0,0,0,0,0,0,0,0,0,0,0,0,0,0,0,0,0,0,0,0,0,0,0,0,0,0,0,0,0,0,0,0,0,0,0,0,0,3.79,3.7901,0,3.7904,3.7904,3.7904,3.7924,3.7925,3.7925,3.7926,3.7927,3.7927,3.7926,0,0,0,0,0,0,0,0,0,0,0,0,0,3.7909,3.7909,3.79,3.7901,3.7901,3.7904,3.7904,3.7904,3.7924,3.7925,3.7925,3.7926,3.7927,3.7927,3.7926,0,0,0,0,0,0,0,0,0,0,0,0,0,3.7908,3.7908,3.79,3.7911,3.7912,3.7904,3.7904,3.7904,3.7924,3.7925,3.7925,3.7926,3.7927,3.7927,3.7926,3.7908,0,0,3.7924,3.7924,0,0,0,0,0,0,0,0,3.7908,3.7908,3.7909,3.791,3.7911,3.7914,3.7908,3.7905,3.7924,3.7919,3.7926,3.7926,3.7922,3.7922,3.7921,3.7908,3.7908,3.7924,3.7924,3.7923,3.7923,0,0,0,0,0,0,0,3.7908,3.7908,3.7902,3.7909,3.7911,3.7915,3.7916,3.7907,3.7916,3.792,3.7921,3.7921,3.7923,3.7921,3.7921,3.7908,3.7924,3.7924,3.7923,3.7923,3.7879,3.7879,0,0,0,0,0,0,3.7907,3.7908,3.7902,3.7902,3.7911,3.7914,3.7915,3.7913,3.7917,3.7918,3.7921,3.7922,3.7922,3.7922,3.7921,3.79,3.7923,3.7923,3.7923,3.788,3.7879,3.7878,0,0,0,0,0,0,3.7907,3.7906,3.7902,3.7905,3.7905,3.7913,3.7911,3.7912,3.7911,3.7918,3.7919,3.7918,3.7923,3.7922,3.7911,3.79,3.7923,3.7922,3.7881,3.788,3.7879,3.7857,0,0,0,0,0,0,3.7907,3.7906,3.79,3.7905,3.7905,3.7892,3.791,3.7912,3.791,3.7912,3.7915,3.7916,3.7923,3.7912,3.791,3.79,3.7922,3.7882,3.7881,3.7879,3.7859,3.7855,3.7852,0,0,0,0,0,3.7907,3.7893,3.7899,3.7898,3.7897,3.7891,3.7891,3.79,3.7909,3.7903,3.7907,3.7916,3.7902,3.7911,3.7909,3.7898,3.7883,3.7881,3.7879,3.786,3.7856,3.7852,0,0,0,0,0,0,3.7886,3.7894,3.7901,3.7888,3.7889,3.7895,3.7886,3.7895,3.7893,3.7895,3.7905,3.7905,3.7893,3.7894,3.7904,3.788,3.7894,3.7892,3.788,3.7876,3.7873,3.7872,3.7921,0,0,0,0,0,3.7879,3.7875,3.7882,3.787,3.787,3.7878,3.7876,3.7883,3.7884,3.7884,3.7887,3.7887,3.7883,3.7879,3.7875,3.7859,3.786,3.7851,3.7847,3.7845,3.7843,3.7834,3.783,3.7873,3.7873,3.7873,0,0,3.7866,3.787,3.7867,3.7865,3.7867,3.7861,3.7878,3.7871,3.7867,3.7883,3.7873,3.7875,3.7876,3.7862,3.7856,3.7863,3.7831,3.7842,3.784,3.784,3.7832,3.7827,3.7824,3.7871,3.7872,3.7872,0,0,3.784,3.7842,3.7832,3.7834,3.7836,3.7841,3.7839,3.7844,3.7846,3.7836,3.7848,3.7842,3.7834,3.7834,3.7833,3.7806,3.7815,3.7805,3.7787,3.7779,3.7775,3.7772,3.7763,3.7759,3.7802,3.7802,3.7802,0,3.7823,3.7815,3.7826,3.7819,3.7818,3.7832,3.7822,3.7822,3.7823,3.7821,3.7829,3.7819,3.7821,3.7807,3.7801,3.7799,3.7796,3.7804,3.7775,3.7772,3.777,3.776,3.7757,3.7801,3.7801,3.7801,3.7802,0,3.7795,3.7789,3.7781,3.7782,3.778,3.7771,3.7779,3.7776,3.7783,3.7787,3.7777,3.7779,3.7776,3.7773,3.7779,3.776,3.7764,3.7773,3.7787,3.7764,3.7756,3.7752,3.7799,3.78,3.78,3.78,0,0,3.7754,3.7761,3.7758,3.7758,3.7762,3.7758,3.7749,3.7747,3.7743,3.7743,3.7736,3.7729,3.7737,3.7736,3.7743,3.7735,3.7713,3.7745,3.7745,3.7739,3.7692,3.7685,3.768,3.7719,3.7718,3.7718,3.7691,0,3.7728,3.7715,3.7724,3.7709,3.7704,3.7718,3.771,3.7711,3.7715,3.7711,3.7715,3.7709,3.7721,3.7721,3.7714,3.7717,3.7704,3.7719,3.7712,3.7711,3.7711,3.7676,3.7669,3.7643,3.7688,3.7688,3.7687,0,3.7697,3.7696,3.768,3.7685,3.7683,3.7676,3.7675,3.7671,3.7672,3.7675,3.7674,3.7682,3.7673,3.7687,3.7675,3.7685,3.7683,3.7684,3.7683,3.7683,3.7698,3.7674,3.7636,3.7632,3.7682,3.7682,3.7683,0,3.7669,3.7664,3.7654,3.7654,3.7659,3.7654,3.7655,3.7657,3.7655,3.7653,3.7652,3.7649,3.7647,3.7644,3.7651,3.7661,3.7638,3.7652,3.764,3.764,3.7635,3.7635,3.7595,3.7633,3.7633,3.7633,3.7633,0,3.7639,3.7629,3.7641,3.7635,3.7624,3.7634,3.7623,3.7626,3.7627,3.7622,3.7633,3.7627,3.7637,3.7631,3.7637,3.7626,3.7625,3.7627,3.7628,3.7626,3.7625,3.7624,3.7626,3.7632,3.7632,3.7633,3.7633,0,3.7606,3.7614,3.7604,3.761,3.7611,3.7602,3.7607,3.7601,3.7606,3.7598,3.7597,3.7604,3.7598,3.7605,3.76,3.7604,3.7588,3.7592,3.7588,3.7589,3.7577,3.7578,3.7534,3.7529,3.7571,3.757,3.757,0,3.7587,3.7579,3.7584,3.7582,3.7583,3.7578,3.7576,3.7586,3.7583,3.7584,3.7578,3.7573,3.757,3.7561,3.7565,3.7561,3.7565,3.755,3.7565,3.7562,3.7565,3.7565,3.7564,3.7547,3.7547,3.7546,3.7546,0,3.7551,3.7555,3.7553,3.7551,3.7549,3.7548,3.7547,3.7544,3.7554,3.7551,3.7546,3.7543,3.7538,3.7534,3.7531,3.7532,3.754,3.7541,3.7538,3.7536,3.7534,3.7534,3.758,3.7542,3.7543,3.7543,3.7543,3.7543,3.7524,3.7519,3.7521,3.7518,3.7519,3.7518,3.7513,3.7517,3.7513,3.7511,3.7516,3.751,3.751,3.7508,3.7508,3.7502,3.7508,3.7504,3.7503,3.7501,3.75,3.7534,3.7501,3.7502,3.7502,3.7502,3.7502,0,3.749,3.7492,3.7489,3.7488,3.7485,3.7494,3.7494,3.7491,3.7485,3.7486,3.7483,3.7477,3.7472,3.7476,3.7472,3.7467,3.7471,3.7465,3.7466,3.7466,3.7494,3.7497,3.7462,3.7462,3.7463,3.7463,3.7463,3.7463,3.7471,3.7462,3.7466,3.7457,3.746,3.7454,3.7453,3.7452,3.7453,3.7446,3.7442,3.7445,3.7447,3.7443,3.7439,3.744,3.7438,3.7431,3.7434,3.746,3.7464,3.7468,3.7471,3.7431,3.7431,3.7406,3.7406,3.7406]}]]